Wind_Speed
3 1 2 3 6 5 5 3 7 9 9 8 10 9 12 15 18 19 20 19 21 22 22 23 23 23 24 27 27 30 33 34 34 34 34 33 31 31 31 32 32 32 32 33 33 31 30 29 26
2 1 4 6 6 6 4 7 7 9 9 11 12 10 11 14 17 17 18 20 21 20 20 20 23 25 27 30 33 34 34 35 37 38 36 35 35 31 32 33 34 34 34 34 35 32 32 31 29
1 3 6 8 10 10 9 9 8 9 12 13 12 13 12 14 17 17 18 20 20 20 22 23 25 30 34 36 37 37 36 38 38 40 40 37 38 34 34 35 35 36 36 36 36 35 33 32 32
2 5 7 9 9 11 13 12 8 10 13 17 14 14 13 16 16 19 21 22 22 23 26 29 33 36 39 38 39 41 40 40 41 41 43 39 40 39 35 35 37 37 37 38 37 37 36 33 33
5 6 8 10 10 13 12 13 12 13 14 17 15 10 12 18 18 18 20 23 25 28 33 41 43 40 40 39 40 42 45 44 44 45 44 43 42 41 38 36 37 37 38 37 38 38 38 36 34
7 8 9 12 12 13 13 11 12 14 15 15 14 9 13 17 20 21 24 30 32 36 38 40 45 46 42 42 43 45 48 50 49 48 46 46 43 44 39 36 35 36 36 35 36 38 37 38 36
8 10 10 11 14 14 13 11 13 14 16 16 15 10 14 16 18 23 30 34 38 40 43 42 42 43 47 47 47 48 48 49 51 50 47 46 44 43 43 38 35 34 35 35 37 35 37 37 37
10 10 11 12 12 15 14 14 15 16 15 16 15 15 15 16 21 26 30 35 40 44 46 44 44 46 46 47 51 47 42 42 41 41 41 41 43 42 42 41 36 34 34 35 37 34 34 36 38
11 11 12 13 14 15 15 15 15 16 15 16 15 16 18 20 24 30 35 39 42 45 48 44 46 49 47 48 46 40 34 35 38 36 40 42 44 41 42 42 40 36 34 33 34 38 32 34 36
11 12 13 13 14 16 15 15 16 16 15 17 17 17 18 21 26 31 35 38 42 46 46 50 52 51 47 47 39 36 37 36 36 35 36 40 39 36 39 43 43 40 35 35 34 34 38 32 33
11 12 15 15 15 16 18 16 16 15 16 16 17 17 18 22 27 32 36 40 45 50 52 51 51 48 48 45 37 38 40 41 39 38 40 36 40 41 44 45 43 38 37 36 35 33 32 38 33
13 14 16 17 17 16 17 16 17 16 16 17 17 17 20 24 27 32 36 42 49 54 57 55 52 50 47 44 37 37 34 33 33 36 41 41 37 42 43 47 44 44 40 39 36 35 34 35 36
16 16 18 18 17 17 17 16 16 16 16 18 19 18 21 24 28 32 36 42 50 56 56 57 54 52 50 48 39 36 35 31 29 25 29 38 45 42 43 40 46 38 38 43 40 36 34 36 37
17 17 17 17 17 18 17 16 15 15 17 18 19 18 20 25 28 32 38 44 51 56 54 55 56 53 53 49 39 35 34 35 34 34 34 35 39 42 35 41 42 40 34 44 43 38 35 34 37
17 17 18 16 17 17 16 15 16 16 18 17 18 17 20 24 28 33 39 46 53 53 54 56 56 55 54 43 33 30 29 31 33 35 43 45 41 39 38 38 38 43 41 41 40 39 35 35 34
20 18 17 17 16 16 14 16 16 16 17 16 17 18 20 23 28 33 39 46 51 51 54 55 56 55 44 33 30 25 26 27 31 34 35 42 45 38 39 38 36 44 43 35 37 38 35 38 34
20 16 15 16 16 14 13 14 18 17 15 15 16 16 20 24 27 33 41 46 50 52 55 56 56 51 36 34 25 26 28 29 29 31 32 39 45 41 42 39 45 41 43 39 40 35 31 32 34
18 15 14 16 15 13 13 15 14 17 15 14 15 17 21 24 27 34 42 46 51 54 55 57 56 42 37 31 31 33 34 38 37 31 31 36 43 43 43 40 45 40 39 32 34 36 41 41 35
17 16 15 15 15 13 11 16 15 14 14 15 15 18 22 23 26 33 41 45 50 54 55 56 53 37 35 34 36 41 43 42 39 40 33 39 43 45 43 43 43 28 38 31 35 23 33 35 36
19 17 17 15 15 13 13 18 15 14 14 14 15 17 22 24 27 32 40 44 50 54 55 58 45 35 33 35 44 46 43 35 32 29 32 38 43 48 41 44 44 42 36 30 26 24 22 27 33
21 18 17 14 13 14 14 17 16 15 15 15 15 16 21 25 27 30 38 44 49 52 55 58 39 33 31 37 40 38 34 22 12 21 28 28 34 42 39 39 38 36 27 25 25 25 18 18 21
20 18 16 14 12 14 17 11 21 16 16 16 15 16 20 24 26 28 35 43 49 51 57 58 37 31 29 36 33 31 24 22 7 11 15 19 25 33 36 32 27 31 22 20 20 22 11 15 10
19 18 16 14 12 13 17 17 17 19 17 17 15 16 19 22 24 26 32 40 48 51 57 57 38 30 28 34 26 29 21 19 21 15 8 11 21 26 25 24 27 23 20 14 22 22 13 11 8
21 19 18 15 15 14 16 19 18 19 17 17 16 16 18 19 22 23 30 38 45 50 56 56 36 30 27 33 28 26 17 21 23 22 19 14 20 20 20 22 24 22 21 19 13 9 9 20 19
23 21 21 19 17 17 16 17 20 19 17 17 15 14 15 17 19 21 28 35 42 47 51 55 38 29 24 31 31 16 13 15 18 17 17 21 18 20 20 23 24 23 21 19 17 12 24 20 16
26 24 24 25 20 17 15 17 20 20 18 16 15 13 13 13 16 18 25 32 38 43 49 53 43 29 23 28 31 21 19 12 11 12 13 11 19 19 23 24 24 21 23 21 22 24 28 25 23
29 28 28 27 26 22 15 17 21 21 20 17 17 15 13 13 14 16 21 27 34 40 45 47 48 29 22 24 25 24 21 13 13 11 9 12 14 15 20 21 24 26 26 27 19 19 23 16 17
34 32 29 29 32 28 20 16 22 22 20 20 18 16 15 15 11 14 18 22 31 35 41 44 45 36 25 20 18 20 26 19 16 9 16 14 15 19 16 18 19 22 21 14 17 22 20 17 17
37 33 31 33 34 33 27 15 22 24 21 21 21 19 16 16 12 11 14 17 25 31 35 40 41 41 31 26 16 12 19 18 12 12 7 15 18 20 19 17 18 17 12 5 20 10 9 12 14
39 36 35 39 39 38 32 13 22 26 23 22 22 20 18 17 15 11 11 14 18 26 30 33 36 37 36 29 24 14 12 17 17 19 16 13 11 13 16 11 10 8 7 8 9 9 13 16 19
Wind_Direction
141 89 40 10 16 13 328 335 324 321 338 343 336 335 319 310 315 317 324 327 324 321 315 313 308 308 306 305 299 295 288 282 280 277 275 275 267 261 255 250 245 241 240 235 234 233 232 233 235
157 360 8 2 345 333 310 305 298 302 328 340 335 332 317 305 311 322 325 321 321 323 314 309 307 307 307 308 307 302 292 285 280 278 272 269 270 261 254 250 248 241 238 237 233 233 233 234 235
255 349 352 351 344 323 316 306 299 321 335 337 333 334 322 308 318 324 324 324 321 319 314 309 305 310 316 314 310 302 291 283 278 274 271 265 263 260 254 249 248 245 239 237 235 234 235 234 234
336 347 353 343 333 319 321 329 321 327 333 331 337 336 319 313 326 327 326 323 318 314 312 316 315 314 318 313 306 293 283 278 276 269 267 261 259 259 254 249 245 243 241 237 235 234 235 236 235
345 338 340 339 331 314 321 324 328 333 327 321 336 334 313 313 322 327 322 323 325 328 326 326 322 319 313 301 292 284 279 274 273 269 265 261 254 253 252 250 245 243 240 238 237 233 234 235 234
322 331 333 351 343 329 332 316 314 324 324 321 326 319 307 311 326 324 329 338 337 334 327 322 322 320 309 291 289 288 284 280 271 264 262 261 255 253 250 248 246 244 246 238 238 235 233 233 235
312 324 336 338 344 331 322 309 312 324 319 317 314 307 306 315 325 336 343 340 335 331 327 322 315 307 300 294 294 291 282 274 270 268 259 256 257 252 251 249 246 246 244 246 231 235 234 233 233
295 322 331 330 330 325 322 316 320 321 312 310 306 305 311 326 340 346 341 337 332 331 327 322 311 303 294 302 298 289 283 275 267 265 260 256 250 250 250 250 248 244 247 246 243 228 235 235 233
300 311 326 327 323 322 319 310 315 313 305 305 302 307 324 343 345 345 341 337 334 329 325 319 312 304 304 306 297 291 280 273 268 263 259 252 248 243 242 246 246 242 241 243 245 234 231 239 236
308 311 312 314 315 318 318 309 309 310 304 304 305 311 333 343 348 343 341 337 333 328 322 323 314 309 314 311 298 287 283 274 268 268 262 254 245 239 236 239 242 241 238 239 241 244 230 234 242
316 315 307 306 308 311 311 307 307 303 301 305 308 318 332 343 345 341 339 334 333 327 327 319 311 312 313 311 296 289 283 275 259 259 259 261 247 244 242 234 237 239 234 235 239 238 243 227 241
314 313 307 305 304 307 309 306 309 306 303 306 310 320 331 343 342 339 335 335 329 327 327 317 312 314 314 309 296 290 287 270 263 251 251 249 251 236 240 237 231 235 229 233 235 235 234 236 230
303 300 302 303 304 308 307 306 308 306 305 309 313 321 336 341 341 338 335 330 330 329 324 317 314 317 315 309 295 291 286 273 259 256 254 251 245 255 240 230 232 227 227 231 232 233 229 228 236
293 293 297 300 303 306 307 309 308 309 308 310 311 323 337 341 340 339 336 330 332 330 322 317 317 318 314 311 297 287 284 274 258 255 256 258 254 247 251 239 226 224 225 232 228 228 230 229 231
285 287 294 297 301 305 307 305 310 312 311 311 310 325 338 343 340 341 333 335 332 329 322 319 322 319 315 311 302 290 283 273 266 264 258 258 251 242 243 237 236 224 230 241 223 227 232 232 232
285 286 287 291 296 303 304 306 311 311 308 308 311 325 334 340 342 340 335 336 335 335 327 324 326 320 320 316 312 297 276 267 265 261 248 249 244 236 232 232 228 230 226 222 223 228 231 233 231
284 279 278 287 292 299 299 306 306 308 303 305 313 323 334 341 342 344 340 340 349 343 335 330 330 328 323 320 313 312 301 291 281 262 246 240 235 231 226 228 225 216 231 217 224 225 222 227 233
282 273 277 283 289 293 295 298 296 303 300 308 313 325 332 338 343 348 342 345 355 349 337 337 334 332 332 324 319 313 302 292 281 266 237 232 230 224 220 222 216 222 214 236 218 226 227 232 234
279 277 281 282 276 282 289 293 298 293 293 307 317 326 330 337 344 349 347 355 359 352 342 341 341 336 336 328 320 313 307 289 274 257 240 224 226 219 215 218 217 230 213 225 195 225 216 219 232
277 277 277 274 278 278 284 288 292 291 290 304 316 326 332 339 347 349 349 360 4 358 346 345 343 339 336 333 330 327 318 304 270 253 237 225 219 215 213 216 215 227 215 211 192 194 210 230 233
275 274 273 268 278 277 279 287 283 286 285 298 311 325 331 337 347 350 351 5 8 3 352 351 345 344 347 345 346 343 341 333 274 220 207 220 214 211 214 213 212 219 232 235 230 229 242 219 217
268 266 270 271 273 274 283 288 286 289 290 294 308 320 330 337 348 351 352 8 13 8 0 356 350 348 352 358 0 354 360 21 71 161 180 204 201 197 207 207 205 207 218 227 230 233 213 246 246
263 266 269 273 272 273 280 289 282 286 290 293 304 315 327 337 350 351 356 8 16 14 8 360 355 355 1 5 13 17 33 62 87 90 108 171 180 184 190 195 201 196 203 221 234 253 249 200 237
254 264 272 275 277 277 278 288 293 286 290 291 299 312 323 338 350 352 359 9 19 17 14 5 0 360 9 10 10 32 58 86 88 82 80 135 157 166 181 184 186 181 192 204 202 207 209 249 241
250 263 272 275 277 280 282 288 293 288 286 291 300 307 320 337 349 352 360 9 21 21 17 13 7 0 11 13 20 35 78 96 89 87 85 89 131 148 162 175 176 176 179 191 193 204 204 222 226
249 259 271 279 282 276 280 294 294 286 282 284 293 300 309 332 343 351 359 9 22 24 23 19 14 7 15 24 29 42 79 119 102 92 91 100 134 164 165 167 167 181 176 177 195 208 219 220 239
247 255 265 275 280 281 279 287 287 286 277 276 285 296 299 317 339 348 357 7 20 25 24 24 19 14 17 29 36 46 49 75 96 118 118 116 137 172 162 168 171 174 176 186 197 193 230 221 244
247 252 262 270 275 281 284 282 282 282 275 276 281 291 295 300 330 343 350 9 17 26 25 27 23 24 25 27 43 50 48 68 61 133 101 109 123 145 157 157 165 175 184 204 190 218 229 246 252
246 251 257 264 271 280 284 283 277 279 278 272 275 284 288 287 306 333 346 1 20 22 29 28 27 28 32 31 31 44 57 61 71 64 99 126 127 130 142 158 165 179 171 227 221 227 266 260 265
244 249 256 265 267 272 279 287 274 276 276 269 269 277 282 278 287 310 334 347 19 23 29 31 30 32 37 35 38 41 70 79 82 79 78 120 111 122 145 127 149 171 200 257 318 298 269 295 290
Height
5836 5836 5835 5835 5836 5835 5834 5834 5832 5830 5828 5826 5825 5824 5822 5819 5817 5818 5814 5813 5811 5810 5808 5805 5803 5802 5801 5799 5799 5796 5794 5792 5791 5790 5789 5789 5789 5788 5789 5791 5791 5793 5795 5796 5799 5801 5803 5805 5807
5835 5835 5833 5833 5835 5833 5833 5831 5832 5829 5825 5824 5823 5822 5820 5818 5815 5815 5813 5811 5808 5807 5804 5802 5800 5798 5797 5794 5792 5789 5787 5786 5784 5782 5782 5781 5781 5782 5782 5783 5785 5786 5788 5790 5793 5795 5797 5800 5801
5834 5833 5832 5832 5832 5831 5831 5831 5829 5826 5822 5821 5821 5820 5818 5816 5813 5813 5810 5808 5805 5804 5801 5798 5796 5792 5790 5786 5782 5780 5778 5776 5775 5773 5773 5773 5772 5774 5775 5776 5777 5780 5782 5784 5787 5790 5792 5795 5796
5831 5832 5831 5832 5830 5827 5826 5826 5825 5823 5819 5819 5819 5817 5814 5812 5811 5809 5806 5804 5802 5800 5796 5792 5788 5785 5781 5778 5775 5771 5767 5765 5764 5763 5763 5764 5764 5765 5766 5768 5770 5772 5774 5777 5780 5783 5786 5789 5791
5831 5831 5829 5828 5827 5824 5823 5822 5820 5820 5818 5815 5816 5815 5812 5809 5809 5806 5803 5800 5797 5794 5789 5784 5781 5777 5773 5769 5765 5763 5759 5757 5755 5754 5753 5754 5754 5755 5757 5760 5762 5764 5765 5769 5773 5776 5779 5782 5785
5831 5829 5829 5825 5824 5821 5821 5820 5819 5817 5815 5814 5814 5813 5810 5807 5805 5801 5798 5795 5792 5788 5784 5779 5773 5766 5763 5759 5755 5753 5749 5746 5745 5742 5743 5744 5745 5748 5749 5752 5755 5757 5760 5761 5765 5768 5772 5775 5779
5829 5827 5825 5823 5821 5820 5819 5818 5817 5814 5812 5811 5810 5810 5808 5805 5802 5798 5794 5790 5786 5782 5777 5771 5765 5759 5752 5748 5745 5742 5737 5733 5732 5734 5732 5733 5737 5739 5741 5745 5746 5751 5752 5755 5757 5761 5765 5768 5772
5826 5823 5822 5820 5820 5819 5816 5815 5813 5811 5810 5808 5807 5806 5805 5802 5799 5795 5790 5786 5781 5775 5769 5762 5755 5749 5744 5739 5733 5728 5725 5721 5721 5722 5720 5721 5725 5730 5734 5737 5741 5744 5746 5748 5750 5753 5758 5762 5765
5822 5820 5818 5818 5817 5816 5814 5811 5810 5809 5807 5806 5804 5802 5800 5797 5793 5790 5785 5780 5774 5768 5761 5754 5746 5737 5733 5727 5720 5716 5715 5714 5712 5713 5711 5711 5714 5717 5724 5728 5732 5736 5740 5742 5744 5747 5751 5755 5759
5818 5817 5816 5816 5815 5813 5811 5809 5806 5805 5805 5802 5801 5799 5797 5792 5788 5784 5779 5774 5768 5760 5751 5743 5733 5727 5722 5715 5710 5705 5705 5705 5705 5704 5704 5703 5703 5707 5713 5717 5722 5727 5732 5735 5738 5741 5744 5749 5753
5816 5814 5814 5814 5812 5810 5808 5806 5804 5802 5801 5800 5798 5796 5793 5789 5785 5780 5775 5770 5763 5754 5745 5736 5727 5720 5713 5706 5701 5697 5694 5691 5694 5695 5694 5695 5695 5699 5702 5707 5713 5718 5723 5727 5731 5734 5738 5741 5746
5813 5812 5811 5809 5808 5806 5805 5802 5801 5799 5798 5796 5795 5793 5789 5785 5781 5776 5771 5764 5756 5747 5737 5726 5716 5710 5703 5695 5691 5687 5683 5680 5681 5683 5684 5686 5687 5687 5692 5697 5703 5709 5715 5719 5723 5727 5730 5734 5738
5810 5809 5807 5805 5804 5803 5801 5799 5797 5795 5794 5793 5791 5789 5785 5781 5777 5772 5766 5759 5750 5739 5726 5714 5705 5700 5691 5684 5679 5675 5673 5671 5671 5674 5674 5675 5676 5677 5678 5679 5695 5700 5707 5711 5716 5720 5723 5727 5730
5807 5806 5805 5803 5801 5800 5798 5796 5794 5793 5791 5789 5787 5785 5781 5777 5773 5768 5761 5752 5742 5730 5719 5707 5697 5690 5680 5671 5666 5663 5661 5660 5660 5662 5663 5663 5665 5670 5675 5681 5685 5693 5700 5701 5708 5713 5716 5720 5724
5803 5802 5800 5799 5798 5796 5794 5793 5791 5789 5787 5786 5783 5781 5777 5773 5769 5764 5757 5747 5735 5723 5711 5698 5690 5679 5667 5658 5653 5650 5649 5648 5648 5650 5651 5652 5655 5661 5666 5670 5681 5687 5694 5697 5701 5706 5710 5714 5718
5799 5798 5797 5795 5794 5793 5792 5789 5788 5786 5784 5782 5781 5777 5774 5770 5765 5760 5753 5743 5731 5718 5705 5692 5681 5667 5656 5649 5643 5639 5638 5637 5636 5636 5638 5641 5644 5651 5657 5664 5662 5680 5685 5691 5696 5699 5703 5707 5711
5794 5794 5792 5791 5790 5789 5788 5786 5783 5782 5781 5779 5776 5773 5769 5766 5761 5756 5749 5738 5725 5711 5697 5685 5671 5656 5647 5642 5636 5631 5628 5625 5623 5623 5626 5629 5634 5641 5648 5657 5660 5671 5678 5684 5690 5692 5695 5698 5704
5790 5789 5788 5786 5786 5785 5784 5783 5781 5778 5776 5775 5773 5770 5766 5762 5757 5751 5744 5732 5719 5705 5690 5677 5663 5649 5641 5634 5627 5621 5616 5611 5607 5608 5612 5618 5624 5632 5640 5648 5657 5655 5669 5674 5680 5686 5689 5693 5698
5785 5785 5784 5783 5782 5782 5780 5778 5777 5775 5773 5771 5769 5766 5762 5758 5753 5747 5740 5728 5713 5699 5684 5671 5657 5645 5636 5628 5621 5611 5600 5592 5589 5592 5599 5605 5613 5622 5632 5638 5646 5652 5659 5668 5672 5678 5682 5688 5693
5781 5780 5779 5780 5778 5778 5777 5774 5773 5771 5769 5767 5765 5762 5759 5754 5749 5744 5736 5723 5709 5695 5680 5666 5652 5641 5632 5623 5611 5599 5583 5572 5572 5578 5587 5595 5603 5614 5625 5632 5638 5641 5652 5662 5667 5673 5679 5683 5688
5776 5775 5775 5775 5774 5774 5773 5771 5769 5767 5765 5763 5762 5759 5755 5751 5745 5740 5732 5720 5706 5693 5678 5664 5649 5638 5628 5618 5606 5591 5575 5562 5560 5568 5579 5589 5597 5609 5620 5628 5636 5642 5650 5657 5662 5668 5675 5680 5683
5772 5771 5771 5770 5770 5769 5768 5769 5763 5763 5761 5760 5759 5756 5752 5747 5742 5736 5729 5718 5704 5691 5676 5661 5648 5638 5628 5617 5605 5592 5578 5568 5566 5572 5581 5589 5596 5607 5618 5626 5635 5643 5650 5656 5660 5668 5672 5676 5679
5769 5767 5766 5765 5765 5765 5764 5764 5761 5758 5757 5756 5755 5752 5748 5744 5739 5733 5727 5716 5703 5690 5676 5661 5648 5638 5627 5617 5608 5596 5586 5580 5580 5583 5587 5591 5599 5609 5619 5626 5635 5642 5648 5654 5660 5665 5669 5672 5676
5762 5762 5761 5760 5760 5760 5759 5759 5757 5755 5754 5752 5751 5748 5745 5741 5736 5731 5724 5715 5702 5689 5676 5660 5649 5639 5629 5619 5611 5603 5595 5592 5591 5592 5594 5597 5603 5611 5620 5627 5635 5641 5647 5654 5659 5664 5668 5671 5674
5756 5757 5756 5755 5755 5755 5754 5754 5752 5750 5749 5748 5746 5744 5741 5737 5733 5729 5722 5714 5701 5690 5677 5663 5651 5641 5633 5625 5616 5609 5603 5601 5600 5600 5603 5604 5609 5616 5623 5629 5635 5640 5647 5654 5659 5662 5666 5670 5672
5750 5751 5750 5748 5749 5750 5750 5749 5747 5745 5744 5743 5742 5739 5737 5733 5730 5726 5720 5713 5702 5691 5680 5667 5654 5645 5636 5630 5623 5617 5610 5607 5607 5608 5609 5611 5615 5620 5625 5631 5635 5637 5647 5655 5658 5660 5662 5665 5668
5744 5744 5744 5742 5741 5742 5745 5744 5741 5739 5739 5738 5737 5735 5733 5730 5726 5724 5718 5712 5703 5692 5683 5671 5659 5648 5640 5635 5630 5625 5622 5618 5616 5614 5614 5615 5618 5619 5625 5633 5637 5641 5645 5650 5653 5656 5660 5662 5664
5735 5736 5738 5736 5733 5735 5738 5739 5736 5734 5734 5733 5732 5731 5729 5727 5723 5721 5717 5711 5703 5694 5685 5675 5664 5653 5645 5639 5635 5632 5629 5626 5622 5620 5620 5620 5624 5627 5631 5634 5639 5642 5646 5650 5653 5657 5658 5659 5661
5727 5729 5729 5729 5727 5727 5730 5735 5731 5728 5729 5728 5727 5726 5725 5723 5721 5718 5714 5709 5703 5696 5687 5679 5669 5659 5649 5644 5639 5637 5635 5632 5630 5627 5628 5628 5629 5632 5635 5638 5642 5646 5649 5650 5653 5654 5655 5656 5658
5717 5720 5721 5720 5720 5719 5721 5731 5726 5723 5722 5722 5721 5721 5720 5718 5717 5715 5711 5707 5703 5697 5689 5681 5674 5665 5655 5649 5644 5638 5636 5636 5635 5635 5635 5636 5637 5639 5640 5643 5645 5647 5649 5650 5651 5653 5655 5655 5655